Location: Elstree
(51.6403°N, 0.2969°W)
Time: 21:41:01
(UTC+00:00)

Terra - Pass Details

Date: 25 June 2021
Orbit: 701 x 703 km, 98.2° (Epoch: 24 July)

Event Time Altitude Azimuth Distance (km) Brightness Sun altitude
Exits shadow 22:38:24 10° 202° (SSW) 2,207 4.0 -12.7°
Reaches altitude 10° 22:38:31 10° 203° (SSW) 2,168 3.9 -12.7°
Maximum altitude 22:42:44 31° 265° (W) 1,227 3.2 -12.9°
Drops below altitude 10° 22:46:58 10° 328° (NNW) 2,183 5.7 -13.1°
Sets 22:49:29 0° 339° (NNW) 3,106 7.2 -13.2°
